#datetime,building,power
2022-02-17T00:00:00,mnr,11.54
2022-02-17T00:01:00,mnr,11.14
2022-02-17T00:02:00,mnr,10.93
2022-02-17T00:03:00,mnr,10.80
2022-02-17T00:04:00,mnr,10.80
2022-02-17T00:05:00,mnr,11.38
2022-02-17T00:06:00,mnr,11.31
2022-02-17T00:07:00,mnr,11.48
2022-02-17T00:08:00,mnr,11.50
2022-02-17T00:09:00,mnr,11.10
2022-02-17T00:10:00,mnr,11.51
2022-02-17T00:11:00,mnr,11.47
2022-02-17T00:12:00,mnr,10.61
2022-02-17T00:13:00,mnr,10.76
2022-02-17T00:14:00,mnr,10.74
2022-02-17T00:15:00,mnr,10.14
2022-02-17T00:16:00,mnr,10.09
2022-02-17T00:17:00,mnr,9.95
2022-02-17T00:18:00,mnr,10.16
2022-02-17T00:19:00,mnr,9.40
2022-02-17T00:20:00,mnr,9.31
2022-02-17T00:21:00,mnr,10.65
2022-02-17T00:22:00,mnr,9.39
2022-02-17T00:23:00,mnr,9.40
2022-02-17T00:24:00,mnr,9.41
2022-02-17T00:25:00,mnr,9.45
2022-02-17T00:26:00,mnr,9.87
2022-02-17T00:27:00,mnr,9.46
2022-02-17T00:28:00,mnr,9.48
2022-02-17T00:29:00,mnr,9.54
2022-02-17T00:30:00,mnr,9.62
2022-02-17T00:31:00,mnr,9.51
2022-02-17T00:32:00,mnr,9.56
2022-02-17T00:33:00,mnr,9.57
2022-02-17T00:34:00,mnr,10.04
2022-02-17T00:35:00,mnr,9.49
2022-02-17T00:36:00,mnr,9.02
2022-02-17T00:37:00,mnr,9.45
2022-02-17T00:38:00,mnr,9.45
2022-02-17T00:39:00,mnr,9.50
2022-02-17T00:40:00,mnr,9.41
2022-02-17T00:41:00,mnr,9.53
2022-02-17T00:42:00,mnr,10.64
2022-02-17T00:43:00,mnr,9.42
2022-02-17T00:44:00,mnr,9.43
2022-02-17T00:45:00,mnr,9.40
2022-02-17T00:46:00,mnr,9.39
2022-02-17T00:47:00,mnr,9.46
2022-02-17T00:48:00,mnr,9.18
2022-02-17T00:49:00,mnr,9.05
2022-02-17T00:50:00,mnr,9.64
2022-02-17T00:51:00,mnr,9.21
2022-02-17T00:52:00,mnr,9.19
2022-02-17T00:53:00,mnr,9.41
2022-02-17T00:54:00,mnr,9.27
2022-02-17T00:55:00,mnr,9.24
2022-02-17T00:56:00,mnr,9.22
2022-02-17T00:57:00,mnr,9.91
2022-02-17T00:58:00,mnr,9.68
2022-02-17T00:59:00,mnr,9.16
2022-02-17T01:00:00,mnr,9.22
2022-02-17T01:01:00,mnr,9.12
2022-02-17T01:02:00,mnr,9.12
2022-02-17T01:03:00,mnr,9.10
2022-02-17T01:04:00,mnr,9.16
2022-02-17T01:05:00,mnr,9.20
2022-02-17T01:06:00,mnr,9.19
2022-02-17T01:07:00,mnr,9.60
2022-02-17T01:08:00,mnr,9.18
2022-02-17T01:09:00,mnr,9.39
2022-02-17T01:10:00,mnr,9.36
2022-02-17T01:11:00,mnr,8.99
2022-02-17T01:12:00,mnr,8.98
2022-02-17T01:13:00,mnr,9.01
2022-02-17T01:14:00,mnr,9.25
2022-02-17T01:15:00,mnr,9.02
2022-02-17T01:16:00,mnr,7.96
2022-02-17T01:17:00,mnr,8.25
2022-02-17T01:18:00,mnr,7.94
2022-02-17T01:19:00,mnr,7.95
2022-02-17T01:20:00,mnr,8.49
2022-02-17T01:21:00,mnr,7.94
2022-02-17T01:22:00,mnr,7.91
2022-02-17T01:23:00,mnr,8.06
2022-02-17T01:24:00,mnr,7.24
2022-02-17T01:25:00,mnr,7.25
2022-02-17T01:26:00,mnr,7.80
2022-02-17T01:27:00,mnr,7.18
2022-02-17T01:28:00,mnr,7.18
2022-02-17T01:29:00,mnr,7.85
2022-02-17T01:30:00,mnr,7.21
2022-02-17T01:31:00,mnr,7.24
2022-02-17T01:32:00,mnr,7.49
2022-02-17T01:33:00,mnr,7.17
2022-02-17T01:34:00,mnr,7.18
2022-02-17T01:35:00,mnr,7.16
2022-02-17T01:36:00,mnr,15.63
2022-02-17T01:37:00,mnr,8.86
2022-02-17T01:38:00,mnr,8.80
2022-02-17T01:39:00,mnr,9.26
2022-02-17T01:40:00,mnr,9.38
2022-02-17T01:41:00,mnr,9.03
2022-02-17T01:42:00,mnr,8.81
2022-02-17T01:43:00,mnr,8.75
2022-02-17T01:44:00,mnr,8.11
2022-02-17T01:45:00,mnr,8.73
2022-02-17T01:46:00,mnr,9.17
2022-02-17T01:47:00,mnr,8.62
2022-02-17T01:48:00,mnr,8.65
2022-02-17T01:49:00,mnr,8.55
2022-02-17T01:50:00,mnr,8.56
2022-02-17T01:51:00,mnr,8.54
2022-02-17T01:52:00,mnr,8.60
2022-02-17T01:53:00,mnr,9.71
2022-02-17T01:54:00,mnr,8.56
2022-02-17T01:55:00,mnr,8.69
2022-02-17T01:56:00,mnr,8.49
2022-02-17T01:57:00,mnr,8.53
2022-02-17T01:58:00,mnr,8.54
2022-02-17T01:59:00,mnr,8.54
2022-02-17T02:00:00,mnr,8.99
2022-02-17T02:01:00,mnr,8.52
2022-02-17T02:02:00,mnr,8.54
2022-02-17T02:03:00,mnr,8.67
2022-02-17T02:04:00,mnr,8.71
2022-02-17T02:05:00,mnr,8.83
2022-02-17T02:06:00,mnr,8.74
2022-02-17T02:07:00,mnr,10.23
2022-02-17T02:08:00,mnr,8.83
2022-02-17T02:09:00,mnr,9.31
2022-02-17T02:10:00,mnr,8.08
2022-02-17T02:11:00,mnr,8.09
2022-02-17T02:12:00,mnr,8.11
2022-02-17T02:13:00,mnr,8.66
2022-02-17T02:14:00,mnr,7.87
2022-02-17T02:15:00,mnr,8.36
2022-02-17T02:16:00,mnr,7.94
2022-02-17T02:17:00,mnr,7.84
2022-02-17T02:18:00,mnr,7.58
2022-02-17T02:19:00,mnr,7.72
2022-02-17T02:20:00,mnr,7.91
2022-02-17T02:21:00,mnr,8.02
2022-02-17T02:22:00,mnr,9.07
2022-02-17T02:23:00,mnr,9.82
2022-02-17T02:24:00,mnr,9.34
2022-02-17T02:25:00,mnr,9.40
2022-02-17T02:26:00,mnr,9.35
2022-02-17T02:27:00,mnr,9.34
2022-02-17T02:28:00,mnr,9.22
2022-02-17T02:29:00,mnr,9.24
2022-02-17T02:30:00,mnr,9.23
2022-02-17T02:31:00,mnr,9.10
2022-02-17T02:32:00,mnr,8.97
2022-02-17T02:33:00,mnr,8.86
2022-02-17T02:34:00,mnr,8.79
2022-02-17T02:35:00,mnr,9.30
2022-02-17T02:36:00,mnr,9.30
2022-02-17T02:37:00,mnr,9.39
2022-02-17T02:38:00,mnr,9.38
2022-02-17T02:39:00,mnr,9.78
2022-02-17T02:40:00,mnr,9.04
2022-02-17T02:41:00,mnr,10.22
2022-02-17T02:42:00,mnr,10.23
2022-02-17T02:43:00,mnr,10.24
2022-02-17T02:44:00,mnr,10.93
2022-02-17T02:45:00,mnr,10.20
2022-02-17T02:46:00,mnr,10.05
2022-02-17T02:47:00,mnr,10.02
2022-02-17T02:48:00,mnr,10.55
2022-02-17T02:49:00,mnr,9.98
2022-02-17T02:50:00,mnr,9.94
2022-02-17T02:51:00,mnr,9.84
2022-02-17T02:52:00,mnr,10.49
2022-02-17T02:53:00,mnr,9.44
2022-02-17T02:54:00,mnr,9.48
2022-02-17T02:55:00,mnr,9.45
2022-02-17T02:56:00,mnr,9.39
2022-02-17T02:57:00,mnr,9.34
2022-02-17T02:58:00,mnr,9.40
2022-02-17T02:59:00,mnr,9.29
2022-02-17T03:00:00,mnr,9.91
2022-02-17T03:01:00,mnr,9.18
2022-02-17T03:02:00,mnr,9.16
2022-02-17T03:03:00,mnr,9.35
2022-02-17T03:04:00,mnr,9.18
2022-02-17T03:05:00,mnr,8.58
2022-02-17T03:06:00,mnr,9.01
2022-02-17T03:07:00,mnr,8.79
2022-02-17T03:08:00,mnr,8.67
2022-02-17T03:09:00,mnr,8.74
2022-02-17T03:10:00,mnr,8.77
2022-02-17T03:11:00,mnr,8.67
2022-02-17T03:12:00,mnr,8.47
2022-02-17T03:13:00,mnr,8.42
2022-02-17T03:14:00,mnr,8.40
2022-02-17T03:15:00,mnr,8.36
2022-02-17T03:16:00,mnr,8.47
2022-02-17T03:17:00,mnr,9.32
2022-02-17T03:18:00,mnr,8.50
2022-02-17T03:19:00,mnr,9.13
2022-02-17T03:20:00,mnr,8.64
2022-02-17T03:21:00,mnr,8.53
2022-02-17T03:22:00,mnr,9.23
2022-02-17T03:23:00,mnr,9.58
2022-02-17T03:24:00,mnr,10.25
2022-02-17T03:25:00,mnr,10.32
2022-02-17T03:26:00,mnr,9.63
2022-02-17T03:27:00,mnr,10.22
2022-02-17T03:28:00,mnr,9.57
2022-02-17T03:29:00,mnr,9.60
2022-02-17T03:30:00,mnr,9.59
2022-02-17T03:31:00,mnr,9.58
2022-02-17T03:32:00,mnr,9.62
2022-02-17T03:33:00,mnr,9.55
2022-02-17T03:34:00,mnr,9.55
2022-02-17T03:35:00,mnr,10.04
2022-02-17T03:36:00,mnr,9.57
2022-02-17T03:37:00,mnr,9.56
2022-02-17T03:38:00,mnr,9.44
2022-02-17T03:39:00,mnr,9.40
2022-02-17T03:40:00,mnr,9.37
2022-02-17T03:41:00,mnr,9.42
2022-02-17T03:42:00,mnr,10.21
2022-02-17T03:43:00,mnr,10.08
2022-02-17T03:44:00,mnr,9.58
2022-02-17T03:45:00,mnr,8.84
2022-02-17T03:46:00,mnr,9.17
2022-02-17T03:47:00,mnr,9.37
2022-02-17T03:48:00,mnr,9.37
2022-02-17T03:49:00,mnr,9.35
2022-02-17T03:50:00,mnr,9.32
2022-02-17T03:51:00,mnr,9.59
2022-02-17T03:52:00,mnr,9.20
2022-02-17T03:53:00,mnr,9.01
2022-02-17T03:54:00,mnr,8.97
2022-02-17T03:55:00,mnr,8.65
2022-02-17T03:56:00,mnr,8.64
2022-02-17T03:57:00,mnr,9.56
2022-02-17T03:58:00,mnr,9.32
2022-02-17T03:59:00,mnr,9.86
2022-02-17T04:00:00,mnr,9.41
2022-02-17T04:01:00,mnr,9.42
2022-02-17T04:02:00,mnr,9.40
2022-02-17T04:03:00,mnr,9.33
2022-02-17T04:04:00,mnr,9.35
2022-02-17T04:05:00,mnr,9.20
2022-02-17T04:06:00,mnr,9.20
2022-02-17T04:07:00,mnr,9.63
2022-02-17T04:08:00,mnr,9.20
2022-02-17T04:09:00,mnr,9.30
2022-02-17T04:10:00,mnr,9.09
2022-02-17T04:11:00,mnr,8.69
2022-02-17T04:12:00,mnr,8.76
2022-02-17T04:13:00,mnr,9.14
2022-02-17T04:14:00,mnr,9.05
2022-02-17T04:15:00,mnr,8.63
2022-02-17T04:16:00,mnr,8.42
2022-02-17T04:17:00,mnr,8.39
2022-02-17T04:18:00,mnr,9.01
2022-02-17T04:19:00,mnr,8.38
2022-02-17T04:20:00,mnr,8.70
2022-02-17T04:21:00,mnr,8.30
2022-02-17T04:22:00,mnr,8.29
2022-02-17T04:23:00,mnr,8.29
2022-02-17T04:24:00,mnr,8.34
2022-02-17T04:25:00,mnr,8.28
2022-02-17T04:26:00,mnr,8.24
2022-02-17T04:27:00,mnr,8.47
2022-02-17T04:28:00,mnr,8.28
2022-02-17T04:29:00,mnr,8.11
2022-02-17T04:30:00,mnr,7.83
2022-02-17T04:31:00,mnr,8.14
2022-02-17T04:32:00,mnr,7.89
2022-02-17T04:33:00,mnr,7.96
2022-02-17T04:34:00,mnr,8.38
2022-02-17T04:35:00,mnr,7.92
2022-02-17T04:36:00,mnr,7.94
2022-02-17T04:37:00,mnr,7.97
2022-02-17T04:38:00,mnr,7.71
2022-02-17T04:39:00,mnr,7.63
2022-02-17T04:40:00,mnr,7.59
2022-02-17T04:41:00,mnr,8.08
2022-02-17T04:42:00,mnr,7.75
2022-02-17T04:43:00,mnr,7.77
2022-02-17T04:44:00,mnr,7.73
2022-02-17T04:45:00,mnr,8.49
2022-02-17T04:46:00,mnr,8.19
2022-02-17T04:47:00,mnr,7.52
2022-02-17T04:48:00,mnr,7.97
2022-02-17T04:49:00,mnr,7.99
2022-02-17T04:50:00,mnr,7.59
2022-02-17T04:51:00,mnr,7.59
2022-02-17T04:52:00,mnr,7.62
2022-02-17T04:53:00,mnr,7.75
2022-02-17T04:54:00,mnr,7.51
2022-02-17T04:55:00,mnr,8.06
2022-02-17T04:56:00,mnr,7.51
2022-02-17T04:57:00,mnr,7.43
2022-02-17T04:58:00,mnr,7.48
2022-02-17T04:59:00,mnr,7.41
2022-02-17T05:00:00,mnr,7.35
2022-02-17T05:01:00,mnr,7.55
2022-02-17T05:02:00,mnr,10.02
2022-02-17T05:03:00,mnr,11.68
2022-02-17T05:04:00,mnr,12.56
2022-02-17T05:05:00,mnr,12.76
2022-02-17T05:06:00,mnr,12.80
2022-02-17T05:07:00,mnr,13.12
2022-02-17T05:08:00,mnr,12.85
2022-02-17T05:09:00,mnr,12.92
2022-02-17T05:10:00,mnr,13.91
2022-02-17T05:11:00,mnr,14.90
2022-02-17T05:12:00,mnr,13.74
2022-02-17T05:13:00,mnr,15.00
2022-02-17T05:14:00,mnr,13.68
2022-02-17T05:15:00,mnr,15.07
2022-02-17T05:16:00,mnr,14.39
2022-02-17T05:17:00,mnr,14.36
2022-02-17T05:18:00,mnr,15.21
2022-02-17T05:19:00,mnr,14.63
2022-02-17T05:20:00,mnr,14.15
2022-02-17T05:21:00,mnr,14.11
2022-02-17T05:22:00,mnr,14.13
2022-02-17T05:23:00,mnr,14.09
2022-02-17T05:24:00,mnr,14.23
2022-02-17T05:25:00,mnr,14.28
2022-02-17T05:26:00,mnr,14.48
2022-02-17T05:27:00,mnr,14.28
2022-02-17T05:28:00,mnr,14.98
2022-02-17T05:29:00,mnr,14.35
2022-02-17T05:30:00,mnr,14.30
2022-02-17T05:31:00,mnr,14.29
2022-02-17T05:32:00,mnr,14.27
2022-02-17T05:33:00,mnr,14.30
2022-02-17T05:34:00,mnr,14.33
2022-02-17T05:35:00,mnr,14.10
2022-02-17T05:36:00,mnr,15.11
2022-02-17T05:37:00,mnr,14.26
2022-02-17T05:38:00,mnr,14.20
2022-02-17T05:39:00,mnr,14.25
2022-02-17T05:40:00,mnr,14.75
2022-02-17T05:41:00,mnr,23.60
2022-02-17T05:42:00,mnr,15.10
2022-02-17T05:43:00,mnr,14.25
2022-02-17T05:44:00,mnr,14.89
2022-02-17T05:45:00,mnr,14.16
2022-02-17T05:46:00,mnr,14.15
2022-02-17T05:47:00,mnr,14.11
2022-02-17T05:48:00,mnr,14.53
2022-02-17T05:49:00,mnr,14.27
2022-02-17T05:50:00,mnr,14.00
2022-02-17T05:51:00,mnr,14.80
2022-02-17T05:52:00,mnr,13.95
2022-02-17T05:53:00,mnr,14.03
2022-02-17T05:54:00,mnr,14.27
2022-02-17T05:55:00,mnr,14.27
2022-02-17T05:56:00,mnr,14.32
2022-02-17T05:57:00,mnr,14.68
2022-02-17T05:58:00,mnr,14.97
2022-02-17T05:59:00,mnr,14.13
2022-02-17T06:00:00,mnr,14.17
2022-02-17T06:01:00,mnr,14.22
2022-02-17T06:02:00,mnr,14.29
2022-02-17T06:03:00,mnr,14.26
2022-02-17T06:04:00,mnr,14.37
2022-02-17T06:05:00,mnr,14.31
2022-02-17T06:06:00,mnr,14.62
2022-02-17T06:07:00,mnr,14.45
2022-02-17T06:08:00,mnr,14.94
2022-02-17T06:09:00,mnr,14.38
2022-02-17T06:10:00,mnr,14.31
2022-02-17T06:11:00,mnr,14.23
2022-02-17T06:12:00,mnr,14.27
2022-02-17T06:13:00,mnr,14.36
2022-02-17T06:14:00,mnr,15.35
2022-02-17T06:15:00,mnr,14.18
2022-02-17T06:16:00,mnr,14.98
2022-02-17T06:17:00,mnr,15.36
2022-02-17T06:18:00,mnr,15.19
2022-02-17T06:19:00,mnr,15.27
2022-02-17T06:20:00,mnr,15.24
2022-02-17T06:21:00,mnr,15.21
2022-02-17T06:22:00,mnr,15.37
2022-02-17T06:23:00,mnr,15.79
2022-02-17T06:24:00,mnr,15.26
2022-02-17T06:25:00,mnr,15.96
2022-02-17T06:26:00,mnr,16.00
2022-02-17T06:27:00,mnr,15.97
2022-02-17T06:28:00,mnr,15.93
2022-02-17T06:29:00,mnr,15.94
2022-02-17T06:30:00,mnr,15.36
2022-02-17T06:31:00,mnr,14.63
2022-02-17T06:32:00,mnr,14.93
2022-02-17T06:33:00,mnr,14.53
2022-02-17T06:34:00,mnr,14.58
2022-02-17T06:35:00,mnr,14.69
2022-02-17T06:36:00,mnr,14.65
2022-02-17T06:37:00,mnr,14.65
2022-02-17T06:38:00,mnr,14.63
2022-02-17T06:39:00,mnr,14.79
2022-02-17T06:40:00,mnr,14.79
2022-02-17T06:41:00,mnr,14.52
2022-02-17T06:42:00,mnr,14.54
2022-02-17T06:43:00,mnr,14.50
2022-02-17T06:44:00,mnr,14.51
2022-02-17T06:45:00,mnr,14.56
2022-02-17T06:46:00,mnr,14.60
2022-02-17T06:47:00,mnr,15.10
2022-02-17T06:48:00,mnr,14.52
2022-02-17T06:49:00,mnr,14.41
2022-02-17T06:50:00,mnr,14.46
2022-02-17T06:51:00,mnr,15.13
2022-02-17T06:52:00,mnr,15.17
2022-02-17T06:53:00,mnr,15.15
2022-02-17T06:54:00,mnr,15.63
2022-02-17T06:55:00,mnr,16.41
2022-02-17T06:56:00,mnr,15.86
2022-02-17T06:57:00,mnr,15.04
2022-02-17T06:58:00,mnr,15.00
2022-02-17T06:59:00,mnr,16.04
2022-02-17T07:00:00,mnr,14.93
2022-02-17T07:01:00,mnr,15.41
2022-02-17T07:02:00,mnr,14.99
2022-02-17T07:03:00,mnr,15.72
2022-02-17T07:04:00,mnr,15.70
2022-02-17T07:05:00,mnr,15.13
2022-02-17T07:06:00,mnr,15.05
2022-02-17T07:07:00,mnr,14.98
2022-02-17T07:08:00,mnr,14.98
2022-02-17T07:09:00,mnr,15.26
2022-02-17T07:10:00,mnr,15.50
2022-02-17T07:11:00,mnr,14.96
2022-02-17T07:12:00,mnr,15.60
2022-02-17T07:13:00,mnr,14.94
2022-02-17T07:14:00,mnr,15.07
2022-02-17T07:15:00,mnr,15.42
2022-02-17T07:16:00,mnr,14.65
2022-02-17T07:17:00,mnr,14.47
2022-02-17T07:18:00,mnr,14.50
2022-02-17T07:19:00,mnr,14.91
2022-02-17T07:20:00,mnr,14.49
2022-02-17T07:21:00,mnr,17.85
2022-02-17T07:22:00,mnr,15.31
2022-02-17T07:23:00,mnr,15.30
2022-02-17T07:24:00,mnr,15.31
2022-02-17T07:25:00,mnr,15.26
2022-02-17T07:26:00,mnr,15.61
2022-02-17T07:27:00,mnr,15.59
2022-02-17T07:28:00,mnr,16.04
2022-02-17T07:29:00,mnr,15.94
2022-02-17T07:30:00,mnr,15.47
2022-02-17T07:31:00,mnr,15.73
2022-02-17T07:32:00,mnr,16.48
2022-02-17T07:33:00,mnr,15.80
2022-02-17T07:34:00,mnr,16.78
2022-02-17T07:35:00,mnr,15.82
2022-02-17T07:36:00,mnr,16.02
2022-02-17T07:37:00,mnr,16.46
2022-02-17T07:38:00,mnr,15.98
2022-02-17T07:39:00,mnr,15.81
2022-02-17T07:40:00,mnr,16.40
2022-02-17T07:41:00,mnr,15.77
2022-02-17T07:42:00,mnr,15.77
2022-02-17T07:43:00,mnr,15.78
2022-02-17T07:44:00,mnr,15.87
2022-02-17T07:45:00,mnr,15.88
2022-02-17T07:46:00,mnr,16.25
2022-02-17T07:47:00,mnr,16.09
2022-02-17T07:48:00,mnr,15.86
2022-02-17T07:49:00,mnr,15.88
2022-02-17T07:50:00,mnr,15.96
2022-02-17T07:51:00,mnr,16.65
2022-02-17T07:52:00,mnr,16.68
2022-02-17T07:53:00,mnr,16.22
2022-02-17T07:54:00,mnr,16.60
2022-02-17T07:55:00,mnr,16.87
2022-02-17T07:56:00,mnr,16.21
2022-02-17T07:57:00,mnr,16.54
2022-02-17T07:58:00,mnr,17.18
2022-02-17T07:59:00,mnr,16.55
2022-02-17T08:00:00,mnr,16.62
2022-02-17T08:01:00,mnr,16.64
2022-02-17T08:02:00,mnr,16.80
2022-02-17T08:03:00,mnr,16.66
2022-02-17T08:04:00,mnr,16.65
2022-02-17T08:05:00,mnr,16.68
2022-02-17T08:06:00,mnr,17.78
2022-02-17T08:07:00,mnr,17.42
2022-02-17T08:08:00,mnr,17.24
2022-02-17T08:09:00,mnr,17.26
2022-02-17T08:10:00,mnr,17.67
2022-02-17T08:11:00,mnr,16.82
2022-02-17T08:12:00,mnr,16.69
2022-02-17T08:13:00,mnr,16.66
2022-02-17T08:14:00,mnr,17.25
2022-02-17T08:15:00,mnr,16.71
2022-02-17T08:16:00,mnr,17.01
2022-02-17T08:17:00,mnr,18.59
2022-02-17T08:18:00,mnr,18.63
2022-02-17T08:19:00,mnr,19.31
2022-02-17T08:20:00,mnr,14.75
2022-02-17T08:21:00,mnr,16.87
2022-02-17T08:22:00,mnr,18.27
2022-02-17T08:23:00,mnr,17.65
2022-02-17T08:24:00,mnr,17.96
2022-02-17T08:25:00,mnr,17.66
2022-02-17T08:26:00,mnr,18.06
2022-02-17T08:27:00,mnr,18.71
2022-02-17T08:28:00,mnr,14.36
2022-02-17T08:29:00,mnr,18.07
2022-02-17T08:30:00,mnr,18.67
2022-02-17T08:31:00,mnr,18.07
2022-02-17T08:32:00,mnr,18.62
2022-02-17T08:33:00,mnr,18.08
2022-02-17T08:34:00,mnr,17.99
2022-02-17T08:35:00,mnr,18.64
2022-02-17T08:36:00,mnr,17.63
2022-02-17T08:37:00,mnr,17.46
2022-02-17T08:38:00,mnr,17.52
2022-02-17T08:39:00,mnr,17.46
2022-02-17T08:40:00,mnr,17.31
2022-02-17T08:41:00,mnr,19.47
2022-02-17T08:42:00,mnr,18.87
2022-02-17T08:43:00,mnr,18.63
2022-02-17T08:44:00,mnr,19.55
2022-02-17T08:45:00,mnr,19.56
2022-02-17T08:46:00,mnr,18.27
2022-02-17T08:47:00,mnr,18.37
2022-02-17T08:48:00,mnr,18.30
2022-02-17T08:49:00,mnr,18.97
2022-02-17T08:50:00,mnr,18.50
2022-02-17T08:51:00,mnr,18.95
2022-02-17T08:52:00,mnr,18.18
2022-02-17T08:53:00,mnr,17.48
2022-02-17T08:54:00,mnr,17.46
2022-02-17T08:55:00,mnr,17.50
2022-02-17T08:56:00,mnr,18.57
2022-02-17T08:57:00,mnr,17.21
2022-02-17T08:58:00,mnr,18.06
2022-02-17T08:59:00,mnr,17.46
2022-02-17T09:00:00,mnr,18.85
2022-02-17T09:01:00,mnr,17.77
2022-02-17T09:02:00,mnr,18.44
2022-02-17T09:03:00,mnr,17.39
2022-02-17T09:04:00,mnr,17.37
2022-02-17T09:05:00,mnr,18.39
2022-02-17T09:06:00,mnr,17.99
2022-02-17T09:07:00,mnr,17.90
2022-02-17T09:08:00,mnr,17.90
2022-02-17T09:09:00,mnr,19.28
2022-02-17T09:10:00,mnr,18.61
2022-02-17T09:11:00,mnr,19.09
2022-02-17T09:12:00,mnr,19.12
2022-02-17T09:13:00,mnr,19.45
2022-02-17T09:14:00,mnr,17.66
2022-02-17T09:15:00,mnr,17.91
2022-02-17T09:16:00,mnr,17.73
2022-02-17T09:17:00,mnr,17.55
2022-02-17T09:18:00,mnr,17.63
2022-02-17T09:19:00,mnr,17.65
2022-02-17T09:20:00,mnr,17.90
2022-02-17T09:21:00,mnr,17.22
2022-02-17T09:22:00,mnr,18.05
2022-02-17T09:23:00,mnr,18.06
2022-02-17T09:24:00,mnr,18.82
2022-02-17T09:25:00,mnr,19.60
2022-02-17T09:26:00,mnr,19.13
2022-02-17T09:27:00,mnr,19.55
2022-02-17T09:28:00,mnr,26.87
2022-02-17T09:29:00,mnr,18.74
2022-02-17T09:30:00,mnr,20.92
2022-02-17T09:31:00,mnr,19.26
2022-02-17T09:32:00,mnr,19.26
2022-02-17T09:33:00,mnr,19.24
2022-02-17T09:34:00,mnr,19.16
2022-02-17T09:35:00,mnr,19.14
2022-02-17T09:36:00,mnr,19.13
2022-02-17T09:37:00,mnr,19.17
2022-02-17T09:38:00,mnr,19.45
2022-02-17T09:39:00,mnr,19.74
2022-02-17T09:40:00,mnr,19.28
2022-02-17T09:41:00,mnr,19.31
2022-02-17T09:42:00,mnr,19.27
2022-02-17T09:43:00,mnr,19.19
2022-02-17T09:44:00,mnr,19.41
2022-02-17T09:45:00,mnr,19.30
2022-02-17T09:46:00,mnr,19.74
2022-02-17T09:47:00,mnr,19.22
2022-02-17T09:48:00,mnr,19.32
2022-02-17T09:49:00,mnr,19.08
2022-02-17T09:50:00,mnr,19.20
2022-02-17T09:51:00,mnr,16.75
2022-02-17T09:52:00,mnr,19.03
2022-02-17T09:53:00,mnr,19.61
2022-02-17T09:54:00,mnr,17.67
2022-02-17T09:55:00,mnr,19.64
2022-02-17T09:56:00,mnr,20.12
2022-02-17T09:57:00,mnr,19.65
2022-02-17T09:58:00,mnr,19.78
2022-02-17T09:59:00,mnr,20.92
2022-02-17T10:00:00,mnr,20.88
2022-02-17T10:01:00,mnr,20.35
2022-02-17T10:02:00,mnr,20.61
2022-02-17T10:03:00,mnr,19.65
2022-02-17T10:04:00,mnr,20.88
2022-02-17T10:05:00,mnr,20.52
2022-02-17T10:06:00,mnr,19.59
2022-02-17T10:07:00,mnr,19.63
2022-02-17T10:08:00,mnr,19.57
2022-02-17T10:09:00,mnr,20.88
2022-02-17T10:10:00,mnr,19.83
2022-02-17T10:11:00,mnr,19.67
2022-02-17T10:12:00,mnr,19.71
2022-02-17T10:13:00,mnr,19.77
2022-02-17T10:14:00,mnr,20.06
2022-02-17T10:15:00,mnr,19.75
2022-02-17T10:16:00,mnr,20.24
2022-02-17T10:17:00,mnr,20.76
2022-02-17T10:18:00,mnr,19.71
2022-02-17T10:19:00,mnr,19.65
2022-02-17T10:20:00,mnr,19.65
2022-02-17T10:21:00,mnr,19.73
2022-02-17T10:22:00,mnr,19.81
2022-02-17T10:23:00,mnr,19.99
2022-02-17T10:24:00,mnr,20.52
2022-02-17T10:25:00,mnr,19.99
2022-02-17T10:26:00,mnr,19.89
2022-02-17T10:27:00,mnr,20.70
2022-02-17T10:28:00,mnr,19.96
2022-02-17T10:29:00,mnr,20.00
2022-02-17T10:30:00,mnr,20.06
2022-02-17T10:31:00,mnr,20.74
2022-02-17T10:32:00,mnr,20.08
2022-02-17T10:33:00,mnr,20.07
2022-02-17T10:34:00,mnr,20.13
2022-02-17T10:35:00,mnr,19.75
2022-02-17T10:36:00,mnr,19.75
2022-02-17T10:37:00,mnr,19.56
2022-02-17T10:38:00,mnr,29.67
2022-02-17T10:39:00,mnr,28.51
2022-02-17T10:40:00,mnr,20.58
2022-02-17T10:41:00,mnr,19.18
2022-02-17T10:42:00,mnr,19.77
2022-02-17T10:43:00,mnr,19.33
2022-02-17T10:44:00,mnr,19.43
2022-02-17T10:45:00,mnr,18.74
2022-02-17T10:46:00,mnr,18.78
2022-02-17T10:47:00,mnr,18.67
2022-02-17T10:48:00,mnr,18.90
2022-02-17T10:49:00,mnr,18.96
2022-02-17T10:50:00,mnr,30.28
2022-02-17T10:51:00,mnr,20.25
2022-02-17T10:52:00,mnr,19.40
2022-02-17T10:53:00,mnr,22.12
2022-02-17T10:54:00,mnr,22.38
2022-02-17T10:55:00,mnr,20.70
2022-02-17T10:56:00,mnr,17.76
2022-02-17T10:57:00,mnr,23.72
2022-02-17T10:58:00,mnr,23.30
2022-02-17T10:59:00,mnr,21.96
2022-02-17T11:00:00,mnr,24.33
2022-02-17T11:01:00,mnr,21.38
2022-02-17T11:02:00,mnr,24.16
2022-02-17T11:03:00,mnr,22.00
2022-02-17T11:04:00,mnr,23.85
2022-02-17T11:05:00,mnr,21.72
2022-02-17T11:06:00,mnr,21.66
2022-02-17T11:07:00,mnr,21.87
2022-02-17T11:08:00,mnr,21.49
2022-02-17T11:09:00,mnr,21.08
2022-02-17T11:10:00,mnr,21.41
2022-02-17T11:11:00,mnr,21.32
2022-02-17T11:12:00,mnr,22.53
2022-02-17T11:13:00,mnr,22.60
2022-02-17T11:14:00,mnr,21.70
2022-02-17T11:15:00,mnr,22.78
2022-02-17T11:16:00,mnr,23.42
2022-02-17T11:17:00,mnr,22.56
2022-02-17T11:18:00,mnr,21.23
2022-02-17T11:19:00,mnr,21.40
2022-02-17T11:20:00,mnr,21.01
2022-02-17T11:21:00,mnr,22.02
2022-02-17T11:22:00,mnr,20.94
2022-02-17T11:23:00,mnr,21.08
2022-02-17T11:24:00,mnr,21.45
2022-02-17T11:25:00,mnr,22.03
2022-02-17T11:26:00,mnr,20.94
2022-02-17T11:27:00,mnr,21.80
2022-02-17T11:28:00,mnr,21.92
2022-02-17T11:29:00,mnr,21.75
2022-02-17T11:30:00,mnr,21.92
2022-02-17T11:31:00,mnr,22.56
2022-02-17T11:32:00,mnr,22.22
2022-02-17T11:33:00,mnr,21.06
2022-02-17T11:34:00,mnr,20.87
2022-02-17T11:35:00,mnr,20.44
2022-02-17T11:36:00,mnr,20.44
2022-02-17T11:37:00,mnr,20.16
2022-02-17T11:38:00,mnr,20.35
2022-02-17T11:39:00,mnr,20.85
2022-02-17T11:40:00,mnr,20.43
2022-02-17T11:41:00,mnr,20.33
2022-02-17T11:42:00,mnr,20.88
2022-02-17T11:43:00,mnr,21.20
2022-02-17T11:44:00,mnr,20.38
2022-02-17T11:45:00,mnr,20.37
2022-02-17T11:46:00,mnr,20.42
2022-02-17T11:47:00,mnr,20.81
2022-02-17T11:48:00,mnr,20.43
2022-02-17T11:49:00,mnr,20.59
2022-02-17T11:50:00,mnr,20.66
2022-02-17T11:51:00,mnr,21.60
2022-02-17T11:52:00,mnr,20.27
2022-02-17T11:53:00,mnr,29.69
2022-02-17T11:54:00,mnr,20.01
2022-02-17T11:55:00,mnr,20.38
2022-02-17T11:56:00,mnr,18.48
2022-02-17T11:57:00,mnr,18.53
2022-02-17T11:58:00,mnr,19.01
2022-02-17T11:59:00,mnr,18.53
2022-02-17T12:00:00,mnr,19.76
2022-02-17T12:01:00,mnr,18.48
2022-02-17T12:02:00,mnr,19.70
2022-02-17T12:03:00,mnr,19.84
2022-02-17T12:04:00,mnr,18.83
2022-02-17T12:05:00,mnr,18.96
2022-02-17T12:06:00,mnr,19.09
2022-02-17T12:07:00,mnr,18.33
2022-02-17T12:08:00,mnr,18.33
2022-02-17T12:09:00,mnr,18.18
2022-02-17T12:10:00,mnr,18.89
2022-02-17T12:11:00,mnr,17.43
2022-02-17T12:12:00,mnr,17.62
2022-02-17T12:13:00,mnr,20.56
2022-02-17T12:14:00,mnr,19.41
2022-02-17T12:15:00,mnr,17.78
2022-02-17T12:16:00,mnr,17.70
2022-02-17T12:17:00,mnr,18.45
2022-02-17T12:18:00,mnr,18.10
2022-02-17T12:19:00,mnr,19.49
2022-02-17T12:20:00,mnr,19.87
2022-02-17T12:21:00,mnr,20.16
2022-02-17T12:22:00,mnr,20.85
2022-02-17T12:23:00,mnr,18.17
2022-02-17T12:24:00,mnr,17.98
2022-02-17T12:25:00,mnr,19.67
2022-02-17T12:26:00,mnr,19.44
2022-02-17T12:27:00,mnr,18.87
2022-02-17T12:28:00,mnr,13.96
2022-02-17T12:29:00,mnr,19.37
2022-02-17T12:30:00,mnr,20.37
2022-02-17T12:31:00,mnr,21.06
2022-02-17T12:32:00,mnr,20.44
2022-02-17T12:33:00,mnr,20.93
2022-02-17T12:34:00,mnr,19.08
2022-02-17T12:35:00,mnr,19.97
2022-02-17T12:36:00,mnr,20.71
2022-02-17T12:37:00,mnr,18.83
2022-02-17T12:38:00,mnr,19.41
2022-02-17T12:39:00,mnr,18.91
2022-02-17T12:40:00,mnr,18.72
2022-02-17T12:41:00,mnr,18.22
2022-02-17T12:42:00,mnr,18.22
2022-02-17T12:43:00,mnr,18.53
2022-02-17T12:44:00,mnr,18.14
2022-02-17T12:45:00,mnr,18.09
2022-02-17T12:46:00,mnr,18.94
2022-02-17T12:47:00,mnr,18.12
2022-02-17T12:48:00,mnr,18.27
2022-02-17T12:49:00,mnr,18.12
2022-02-17T12:50:00,mnr,18.14
2022-02-17T12:51:00,mnr,17.43
2022-02-17T12:52:00,mnr,18.06
2022-02-17T12:53:00,mnr,17.50
2022-02-17T12:54:00,mnr,18.06
2022-02-17T12:55:00,mnr,17.41
2022-02-17T12:56:00,mnr,17.13
2022-02-17T12:57:00,mnr,17.93
2022-02-17T12:58:00,mnr,18.64
2022-02-17T12:59:00,mnr,18.59
2022-02-17T13:00:00,mnr,17.49
2022-02-17T13:01:00,mnr,17.13
2022-02-17T13:02:00,mnr,17.88
2022-02-17T13:03:00,mnr,18.13
2022-02-17T13:04:00,mnr,17.94
2022-02-17T13:05:00,mnr,18.89
2022-02-17T13:06:00,mnr,17.06
2022-02-17T13:07:00,mnr,17.08
2022-02-17T13:08:00,mnr,17.85
2022-02-17T13:09:00,mnr,17.68
2022-02-17T13:10:00,mnr,17.84
2022-02-17T13:11:00,mnr,17.49
2022-02-17T13:12:00,mnr,17.38
2022-02-17T13:13:00,mnr,19.00
2022-02-17T13:14:00,mnr,17.46
2022-02-17T13:15:00,mnr,27.56
2022-02-17T13:16:00,mnr,17.74
2022-02-17T13:17:00,mnr,18.30
2022-02-17T13:18:00,mnr,19.04
2022-02-17T13:19:00,mnr,18.83
2022-02-17T13:20:00,mnr,19.09
2022-02-17T13:21:00,mnr,18.91
2022-02-17T13:22:00,mnr,19.84
2022-02-17T13:23:00,mnr,19.36
2022-02-17T13:24:00,mnr,19.94
2022-02-17T13:25:00,mnr,21.05
2022-02-17T13:26:00,mnr,19.63